"Pseudo-MPEC" for CE8AMJ2

Created 2026 Mar 17 13:35:14 UT using Find_Orb

Click here for an explanation of pseudo-MPECs

 
 Astrometry: 
     CE8AMJ2 0C2026 02 16.57791911 49 22.025+12 56 17.83   ~3BGo 21.23GVNEOCPF51
     CE8AMJ2 0C2026 02 16.59059211 49 20.475+12 56 26.99   ~3BGo 22.03GVNEOCPF51
     CE8AMJ2 0C2026 02 16.60323711 49 18.934+12 56 36.22   ~3BGo 21.73GVNEOCPF51
     CE8AMJ2 0C2026 02 16.61606811 49 17.342+12 56 45.35   ~3BGo 21.88GVNEOCPF51
     CE8AMJ2*1C2026 02 23.36465511 34 52.518+14 18 29.56   ~2N9Z 22.46GVNEOCPG96
     CE8AMJ2 1C2026 02 23.37025311 34 51.791+14 18 33.16   ~2N9Z 21.71GVNEOCPG96
     CE8AMJ2 1C2026 02 23.37587811 34 51.013+14 18 37.22   ~2N9Z 21.45GVNEOCPG96
     CE8AMJ2 1C2026 02 23.38147111 34 50.279+14 18 41.08   ~2N9Z 21.88GVNEOCPG96
     CE8AMJ2  C2026 02 23.43580411 34 42.875+14 19 21.40   ~2NBK 21.2 GWNEOCPH01
     CE8AMJ2  C2026 02 23.43920911 34 42.423+14 19 23.76   ~2NBK 21.1 GWNEOCPH01
     CE8AMJ2  C2026 02 23.46100311 34 39.477+14 19 39.59   ~2NBK 21.1 GWNEOCPH01
     CE8AMJ2  C2026 02 23.46442811 34 39.015+14 19 42.06   ~2NBK 21.7 GWNEOCPH01
     CE8AMJ2 1C2026 02 23.51393211 34 32.333+14 20 18.28   ~2ND5 22.31GVNEOCPI52
     CE8AMJ2 1C2026 02 23.52166011 34 31.260+14 20 23.53   ~2ND5 21.71GVNEOCPI52
     CE8AMJ2 1C2026 02 23.52939211 34 30.223+14 20 29.51   ~2ND5 22.56GVNEOCPI52
     CE8AMJ2 7B2026 02 23.91168611 33 39.010+14 25 07.54   ~2O0K 21.5 GXNEOCPZ84
     CE8AMJ2 7B2026 02 23.91668411 33 38.314+14 25 11.31   ~2O0K 21.6 GXNEOCPZ84
     CE8AMJ2 7B2026 02 23.92165911 33 37.633+14 25 14.98   ~2O0K 21.5 GXNEOCPZ84
     CE8AMJ2 KC2026 02 24.25190211 32 52.84 +14 29 15.3    ~2O6Z 21.9 GVNEOCPH21
     CE8AMJ2 KC2026 02 24.25459811 32 52.47 +14 29 17.1    ~2O6Z 22.1 GVNEOCPH21
     CE8AMJ2 |C2026 02 24.27070011 32 50.190+14 29 33.00   ~2O7Z 21.6 GVNEOCP807
     CE8AMJ2 |C2026 02 24.27798011 32 49.200+14 29 37.90   ~2O7Z 22.0 GVNEOCP807
     CE8AMJ2 |C2026 02 24.28526011 32 48.200+14 29 43.30   ~2O7Z 21.9 GVNEOCP807
     CE8AMJ2 0C2026 02 24.37996111 32 35.519+14 30 49.47   ~2OBZ 21.68wXNEOCPF51
     CE8AMJ2 0C2026 02 24.39172611 32 33.934+14 30 57.92   ~2OBZ 21.56wXNEOCPF51
     CE8AMJ2 0C2026 02 24.40349811 32 32.299+14 31 06.28   ~2OBZ 22.19wXNEOCPF51
     CE8AMJ2 0C2026 02 24.41534511 32 30.675+14 31 14.98   ~2OBZ 21.72wXNEOCPF51
     CE8AMJ2 1C2026 02 27.29712611 25 52.590+15 05 59.60   ~2R85 21.27GVNEOCPV00
     CE8AMJ2 1C2026 02 27.30272811 25 51.794+15 06 03.64   ~2R85 21.17GVNEOCPV00
     CE8AMJ2 1C2026 02 27.30831511 25 50.999+15 06 07.78   ~2R85 21.53GVNEOCPV00
     CE8AMJ2 1C2026 02 27.31389611 25 50.210+15 06 11.70   ~2R85 21.56GVNEOCPV00
     CE8AMJ2 1C2026 03 05.30270711 11 29.195+16 16 18.62   ~358Z 20.62GVNEOCPI52
     CE8AMJ2 1C2026 03 05.31076611 11 28.100+16 16 25.10   ~358Z       VNEOCPI52
     CE8AMJ2 1C2026 03 05.32692511 11 25.678+16 16 36.41   ~358Z 20.91GVNEOCPI52
     CE8AMJ2 1C2026 03 08.33360511 04 01.268+16 50 05.75   ~388o 21.57GVNEOCPG96
     CE8AMJ2 1C2026 03 08.33922511 04 00.401+16 50 09.31   ~388o 20.75GVNEOCPG96
     CE8AMJ2 1C2026 03 08.34484411 03 59.580+16 50 13.16   ~388o 21.10GVNEOCPG96
     CE8AMJ2 1C2026 03 08.35046311 03 58.712+16 50 17.48   ~388o 21.59GVNEOCPG96
     CE8AMJ2 KB2026 03 09.92930611 00 03.418+17 07 14.38   ~3ABK 20.9 GXNEOCPL38
     CE8AMJ2 KB2026 03 09.94920111 00 00.494+17 07 28.52   ~3ABK 20.9 GXNEOCPL38
     CE8AMJ2 KB2026 03 09.96910910 59 57.509+17 07 39.94   ~3ABK 20.6 GXNEOCPL38
     CE8AMJ2 KC2026 03 12.82855810 52 49.814+17 37 13.40   ~3CKZ 20.89GXNEOCPM57
     CE8AMJ2 KC2026 03 12.83677110 52 48.547+17 37 17.87   ~3CKZ 20.53GXNEOCPM57
     CE8AMJ2 KC2026 03 12.84154310 52 47.863+17 37 21.14   ~3CKZ       XNEOCPM57
     CE8AMJ2 0C2026 03 15.35591010 46 31.360+18 01 52.20   ~3F9K       VNEOCP291
     CE8AMJ2 0C2026 03 15.36457010 46 30.110+18 01 57.60   ~3F9K       VNEOCP291
     CE8AMJ2 0C2026 03 15.37322010 46 28.810+18 02 02.30   ~3F9K 21.6 RVNEOCP291

Station data:
(291) LPL/Spacewatch II  (N31.961669 W111.599905)  US/Arizona.  Observers J.
   V. Scotti, R. S. McMillan. 1.8-m f/2.7 reflector + CCD.
(807) Cerro Tololo Observatory, La Serena  (S30.169133 W70.805900)  Chile.
   Observer R. Holmes. 0.61-m f/6.5 astrograph + CCD.
(F51) Pan-STARRS 1, Haleakala  (N20.707234 W156.255910)  US/Hawaii.
   Observers J. Herman, T. Lowe, P. Minguez, A. Schultz, I. Smith. Measurers
   K. Chambers, T. de Boer, J. Fairlamb, H. Gao, M. Huber, C.-C. Lin, E.
   Magnier, Y. Ramanjooloo, R. Wainscoat, R. Weryk. 1.8-m Ritchey-Chrétien +
   CCD.
(G96) Mt. Lemmon Survey  (N32.442729 W110.788720)  US/Arizona.  Observer E.
   J. Christensen. Measurers T. Beuden, V. F. Carvajal, D. Fay, J. B.
   Fazekas, D. C. Fuls, A. R. Gibbs, A. D. Grauer, H. Gröller, J. K. Hogan,
   R. A. Kowalski, S. M. Larson, G. J. Leonard, D. Rankin, R. L. Seaman, F.
   C. Shelly, K. W. Wierzchoś. 1.5-m reflector + 10K CCD.
(H01) Magdalena Ridge Observatory, Socorro  (N33.984833 W107.189333)  US/New
   Mexico.  Observers W. H. Ryan, E. V. Ryan. Measurer W. H. Ryan. 2.4-m
   f/8.9 reflector + CCD.
(H21) Astronomical Research Observatory, Westfield  (N39.483054 W87.968270)
   US/Illinois.  Observer R. Holmes. Measurers S. Foglia, L. Buzzi, T.
   Linder, R. Holmes. 0.40-m f/5.32 astrograph + CCD.
(I52) Steward Observatory, Mt. Lemmon Station  (N32.442570 W110.788920)
   US/Arizona. Measurers T. Beuden, V. F. Carvajal, D. Fay, J. B. Fazekas, D.
   C. Fuls, A. R. Gibbs, A. D. Grauer, H. Gröller, J. K. Hogan, R. A.
   Kowalski, S. M. Larson, G. J. Leonard, D. Rankin, R. L. Seaman, F. C.
   Shelly, K. W. Wierzchoś. 1.0-m prime focus + CCD.
(L38) Gartensternwarte Schafsweide, Sehlde  (N52.095274 E9.699970)  Germany.
   Observer A. Opitz. 0.35-m f/4.6 Newton + CCD.
(M57) Wide-field Mufara Telescope, Isnello  (N37.868879 E14.020200)  Italy.
   Observer A. Nastasi. 1.00-m f/2.1 reflector + CCD.
(V00) Kitt Peak-Bok  (N31.963125 W111.600190)  US/Arizona. Measurers T.
   Beuden, V. F. Carvajal, D. Fay, J. B. Fazekas, D. C. Fuls, A. R. Gibbs, A.
   D. Grauer, H. Gröller, J. K. Hogan, R. A. Kowalski, S. M. Larson, G. J.
   Leonard, D. Rankin, R. L. Seaman, F. C. Shelly, K. W. Wierzchoś. 2.25-m
   reflector + 4x4K mosaic CCD.
(Z84) Calar Alto-Schmidt  (N37.224006 W2.548160)  Spain.  Observer F. Ocaña.
   Measurers F. Ocaña, M. Micheli, R. Kresken. 0.8-m f/3 Schmidt + CCD.

Orbital elements:  CE8AMJ2
   Perihelion 2026 Oct 22.147593 +/- 0.674 TT =  3:32:32.0 (JD 2461335.647593)
Epoch 2026 Mar 15.0 TT = JDT 2461114.5   Sa: 0.9994              AutoNEOCP
M 354.763392203 +/- 0.11            (J2000 ecliptic)
n   0.023679243 +/- 0.000463        Peri.  203.393227 +/- 0.16
a  12.01040064 +/- 0.157            Node   316.728997 +/- 0.018
e   0.74741835 +/- 0.00307          Incl.  163.661043 +/- 0.008
P  41.62327                H 16.44  G  0.15   U  7.6
q 3.033606766 +/- 0.00265    Q 20.98719451 +/- 0.31
From 47 observations 2026 Feb. 16-Mar. 15; mean residual 0".32
Residuals in arcseconds: 
260216 F51  .10-  .09-    260223 Z84  .08-  .15+    260305 I52  .43+  .08+    
260216 F51  .01-  .02-    260223 Z84  .16-  .18+    260305 I52  .01-  .37+    
260216 F51  .15+  .13+    260224 H21  .14+  .07+    260308 G96  .21+  .27-    
260216 F51  .10-  .06+    260224 H21  .12+  .09-    260308 G96  .14-  .38-    
260223 G96  .29-  .03-    260224 807  .20-  .40+    260308 G96  .17+  .20-    
260223 G96  .16+  .51-    260224 807  .10-  .01+    260308 G96  .20-  .45+    
260223 G96  .07-  .55-    260224 807  .15-  .12+    260309 L38  1.2-  .83-    
260223 G96  .27+  .76-    260224 F51  .05-  .21+    260309 L38  .27-  .63+    
260223 H01  .22-  .13+    260224 F51  .33+  .07+    260309 L38  .18-  .63-    
260223 H01  .09-  .02+    260224 F51  .02+  .16-    260312 M57  .46+  .54+    
260223 H01  .03-  .02+    260224 F51  .03+  .10-    260312 M57  .03+  .04+    
260223 H01  .01-  .01+    260227 V00  .13+  .01+    260312 M57  .54+  .43+    
260223 I52  .12+  .20+    260227 V00  .07+  .01+    260315 291  .40-  .19-    
260223 I52  .29-  .15-    260227 V00  .01-  .13+    260315 291  .36+  .31+    
260223 I52  .17-  .22+    260227 V00  .00   .03+    260315 291  .38+  .13+    
260223 Z84  .16+  .03+    260305 I52  .97-  .90-    

Ephemerides (geocentric):
Date (UTC) HH   RA             Dec           delta  r     elong  mag " sig PA
---- --------  ------------   ------------  ------ ------ -----  --- --------
2026 03 17 14  10 40 59.682   +18 22 22.94  2.6090 3.5433 156.4 21.8 .249 149
2026 03 17 15  10 40 53.497   +18 22 45.25  2.6091 3.5431 156.3 21.8 .251 149
2026 03 17 16  10 40 47.313   +18 23 07.53  2.6092 3.5430 156.3 21.8 .253 149
2026 03 17 17  10 40 41.130   +18 23 29.79  2.6094 3.5428 156.2 21.8 .256 149
2026 03 17 18  10 40 34.948   +18 23 52.03  2.6095 3.5426 156.2 21.8 .258 149
2026 03 17 19  10 40 28.767   +18 24 14.23  2.6096 3.5425 156.1 21.8 .261 149
2026 03 17 20  10 40 22.587   +18 24 36.41  2.6097 3.5423 156.0 21.8 .263 148
2026 03 17 21  10 40 16.408   +18 24 58.57  2.6099 3.5421 156.0 21.8 .265 148
2026 03 17 22  10 40 10.230   +18 25 20.70  2.6100 3.5419 155.9 21.8 .268 148
2026 03 17 23  10 40 04.053   +18 25 42.80  2.6101 3.5418 155.9 21.8 .270 148
2026 03 18 00  10 39 57.877   +18 26 04.88  2.6103 3.5416 155.8 21.8 .273 148
2026 03 18 01  10 39 51.702   +18 26 26.93  2.6104 3.5414 155.7 21.8 .275 148
2026 03 18 02  10 39 45.528   +18 26 48.96  2.6105 3.5412 155.7 21.8 .278 147
2026 03 18 03  10 39 39.355   +18 27 10.96  2.6107 3.5411 155.6 21.8 .280 147
2026 03 18 04  10 39 33.183   +18 27 32.93  2.6108 3.5409 155.6 21.8 .283 147
2026 03 18 05  10 39 27.012   +18 27 54.88  2.6109 3.5407 155.5 21.8 .285 147
2026 03 18 06  10 39 20.842   +18 28 16.80  2.6111 3.5405 155.4 21.8 .288 147
2026 03 18 07  10 39 14.673   +18 28 38.69  2.6112 3.5404 155.4 21.8 .291 147
2026 03 18 08  10 39 08.505   +18 29 00.56  2.6113 3.5402 155.3 21.8 .293 147
2026 03 18 09  10 39 02.339   +18 29 22.40  2.6115 3.5400 155.3 21.8 .296 146
